Find Starlink 35838

NORAD ID: 66836 Int'l Des: 2025-280 Owner: SPXS Country: US Constellation: starlink operational
LEOCIRCULAR

現在のビュー

3D地球を読み込み中...

Starlink 35838について

説明を読み込み中...

次回通過

Passes for default location (London). Set your location on the main map for personalized predictions.

高度履歴

Loading altitude history...

軌道要素

1 66836U 25280R 26146.43553552 .00002932 00000-0 25338-3 0 9997
2 66836 70.0004 138.3453 0004077 264.5755 95.4939 14.98336923 27726
Epoch: May 26, 2026 • Age: 11 hours

現在のステータス

高度 577.6 km
速度 7.57 km/s
衛星直下点 32.69°N, 61.25°W
打ち上げ日 Dec 2, 2025
運用期間 0.4 years
タイプ internet

技術仕様

分類 Payload
質量 575.00 kg
乾燥質量 530.00 kg
総質量 575.00 kg
長さ 0.30 m
直径 4.10 m
スパン 29.00 m
形状 Box + pan
製造者 SPXS
バスタイプ Starlink V2MO
フェーズステータス In Orbit
所有者/国 SPXS/US

Most Searched